Aeroporto :
LOGIN :

Iscrizione | Disclaimer

   EN    FR    IT 

 










Sommario :    VFR   VFR Marginale   IFR   IFR Intensivo   IFR Molto Intensivo
Visibilità : 
Base nubi : 
>= 8 km
>= 3000ft
5 / 8 km
1000 / 3000 ft
1500m / 5 km
500 / 1000 ft
800 / 1500m
200 / 500 ft
< 800m
< 200 ft
Simboli :   Temporali  Nebbia  Neve Forte  Precipitazioni Forti  Vento > 20 kt
SIGMETs :   Varie  Temporali  Ghiacco  Turbolenza  Onda orograficha  Ceneri Vulcaniche







- Altitudine del aeroporto : 1079 ft


ETIK - Illesheim Air Base

ULTIMO METAR :
  • 190456Z AUTO 21004KT 9999 FEW026 BKN042 OVC060 19/18 A3001 RMK AO2 SLP148 T01850175 $

METARs OBSOLETI :
  • 190356Z AUTO 22007KT 9999 FEW017 SCT022 BKN042 BKN060 19/17 A3000 RMK AO2 SLP144 T01890170

TAF AMD TAF ETIK
Valido dal 18 a 22 ore il 20 a 04 ore UTC


190514Z 1822/2004 25009KT 9999 BKN050 QNH2992INS
BECMG 1901/1902 27010G15KT 6000 -SHRA VCTS SCT020 BKN060CB QNH2995INS
BECMG 1909/1910 VRB06KT 9999 NSW BKN050 QNH3007INS
BECMG 2002/2003 24009KT 8000 -SHRA BKN040 OVC060 QNH3013INS TX23/1914Z TN15/1902Z
Nessun NOTAM noto per questo aeroporto.



MetMap, La meteo Aeronautica in un colpo d'occhio ! - Copyright ORBIFLY Dicembre 2007 - Disclaimer

ORBIFLY MET'MAP TEAM :

Programmazione e sviluppo : Alexandra Zaïnal
Concezione e sviluppo : Baudouin d'Aumeries
Co-Programmazione e sviluppo : Marc-Olivier Méhu
Supporto tecnico e logistico : Manuel Goepfert
Aiuto per la traduzione : Arnaldo La Scala

Contatto : metmap@orbifly.com




FONTI E CREDITI :

   NOAA